Hourly Weather Goldino

Today, 18 May, Tuesday

Time Temperature Precipitation Wind Pressure Humidity
00:00 +17°C° 0 mm 5 mps 740 mmHg 71%
01:00 +17°C° 0 mm 5 mps 740 mmHg 71%
02:00 +16°C° 0 mm 5 mps 740 mmHg 70%
03:00 +15°C° 0 mm 5 mps 740 mmHg 69%
04:00 +15°C° 0 mm 5 mps 740 mmHg 71%
05:00 +15°C° 0 mm 4 mps 740 mmHg 72%
06:00 +15°C° 0 mm 4 mps 740 mmHg 73%
07:00 +16°C° 0 mm 5 mps 740 mmHg 69%
08:00 +19°C° 0 mm 5 mps 740 mmHg 66%
09:00 +21°C° 0 mm 5 mps 740 mmHg 63%
10:00 +22°C° 0 mm 6 mps 740 mmHg 59%
11:00 +23°C° 0 mm 6 mps 740 mmHg 55%
12:00 +26°C° 0 mm 6 mps 740 mmHg 52%
13:00 +26°C° 0 mm 6 mps 740 mmHg 53%
14:00 +27°C° 0 mm 6 mps 739 mmHg 54%
15:00 +27°C° 0 mm 7 mps 739 mmHg 55%
16:00 +27°C° 0 mm 7 mps 739 mmHg 58%
17:00 +26°C° 0 mm 7 mps 739 mmHg 61%
18:00 +24°C° 0 mm 7 mps 738 mmHg 63%
19:00 +23°C° 0 mm 6 mps 738 mmHg 69%
20:00 +21°C° 0 mm 5 mps 739 mmHg 74%
21:00 +19°C° 0 mm 4 mps 739 mmHg 79%
22:00 +19°C° 0 mm 4 mps 739 mmHg 81%
23:00 +18°C° 0 mm 3 mps 739 mmHg 83%

Tomorrow, 19 May, Wednesday

Time Temperature Precipitation Wind Pressure Humidity
00:00 +17°C° 0 mm 3 mps 739 mmHg 84%
01:00 +17°C° 0 mm 3 mps 739 mmHg 86%
02:00 +16°C° 0 mm 3 mps 739 mmHg 87%
03:00 +16°C° 0 mm 2 mps 739 mmHg 89%
04:00 +16°C° 0 mm 2 mps 739 mmHg 88%
05:00 +16°C° 0 mm 2 mps 739 mmHg 88%
06:00 +18°C° 0 mm 1 mps 739 mmHg 88%
07:00 +18°C° 0 mm 2 mps 739 mmHg 83%
08:00 +19°C° 0 mm 2 mps 739 mmHg 78%
09:00 +20°C° 0 mm 2 mps 739 mmHg 74%
10:00 +21°C° 0 mm 3 mps 739 mmHg 70%
11:00 +22°C° 0 mm 3 mps 739 mmHg 67%
12:00 +24°C° 0 mm 3 mps 739 mmHg 63%
13:00 +23°C° 0 mm 4 mps 739 mmHg 62%
14:00 +25°C° 0 mm 4 mps 739 mmHg 61%
15:00 +25°C° 0 mm 5 mps 739 mmHg 61%
16:00 +25°C° 0.1 mm 5 mps 739 mmHg 63%
17:00 +23°C° 0.1 mm 4 mps 738 mmHg 66%
18:00 +23°C° 0.1 mm 4 mps 738 mmHg 69%
19:00 +22°C° 0.2 mm 3 mps 738 mmHg 73%
20:00 +20°C° 0.2 mm 2 mps 738 mmHg 78%
21:00 +20°C° 0.2 mm 1 mps 738 mmHg 82%
22:00 +18°C° 0.9 mm 2 mps 738 mmHg 85%
23:00 +18°C° 0.9 mm 3 mps 737 mmHg 88%

Day after tomorrow, 20 May, Thursday

Time Temperature Precipitation Wind Pressure Humidity
00:00 +17°C° 0.9 mm 4 mps 737 mmHg 90%
01:00 +17°C° 0.4 mm 3 mps 737 mmHg 91%
02:00 +17°C° 0.4 mm 3 mps 737 mmHg 93%
03:00 +16°C° 0.4 mm 3 mps 737 mmHg 94%
04:00 +16°C° 0.1 mm 3 mps 737 mmHg 94%
05:00 +16°C° 0.1 mm 3 mps 737 mmHg 94%
06:00 +16°C° 0.1 mm 3 mps 737 mmHg 94%
07:00 +15°C° 0.1 mm 4 mps 737 mmHg 91%
08:00 +17°C° 0.1 mm 4 mps 737 mmHg 88%
09:00 +17°C° 0.1 mm 4 mps 737 mmHg 85%
10:00 +17°C° 0.9 mm 4 mps 737 mmHg 85%
11:00 +15°C° 0.9 mm 4 mps 738 mmHg 86%
12:00 +15°C° 0.9 mm 4 mps 738 mmHg 87%
13:00 +16°C° 0.2 mm 5 mps 738 mmHg 82%
14:00 +17°C° 0.2 mm 5 mps 738 mmHg 77%
15:00 +19°C° 0.2 mm 6 mps 738 mmHg 73%
16:00 +17°C° 0.2 mm 5 mps 738 mmHg 75%
17:00 +17°C° 0.2 mm 5 mps 737 mmHg 77%
18:00 +18°C° 0.2 mm 4 mps 737 mmHg 79%
19:00 +15°C° 0.1 mm 4 mps 737 mmHg 84%
20:00 +14°C° 0.1 mm 4 mps 737 mmHg 88%
21:00 +13°C° 0.1 mm 4 mps 737 mmHg 92%
22:00 +13°C° 0 mm 4 mps 737 mmHg 92%
23:00 +13°C° 0 mm 5 mps 737 mmHg 92%

21 May, Friday

Time Temperature Precipitation Wind Pressure Humidity
00:00 +11°C° 0 mm 6 mps 738 mmHg 92%
01:00 +11°C° 0 mm 6 mps 738 mmHg 90%
02:00 +10°C° 0 mm 6 mps 738 mmHg 89%
03:00 +9°C° 0 mm 6 mps 738 mmHg 88%
04:00 +9°C° 0 mm 6 mps 738 mmHg 88%
05:00 +9°C° 0 mm 5 mps 738 mmHg 89%
06:00 +10°C° 0 mm 5 mps 738 mmHg 89%
07:00 +11°C° 0.1 mm 6 mps 738 mmHg 86%
08:00 +11°C° 0.1 mm 6 mps 739 mmHg 83%
09:00 +12°C° 0.1 mm 7 mps 739 mmHg 80%
10:00 +14°C° 0 mm 7 mps 739 mmHg 75%
11:00 +15°C° 0 mm 8 mps 739 mmHg 70%
12:00 +16°C° 0 mm 8 mps 739 mmHg 65%
13:00 +15°C° 0.3 mm 8 mps 739 mmHg 67%
14:00 +15°C° 0.3 mm 9 mps 739 mmHg 69%
15:00 +15°C° 0.3 mm 9 mps 740 mmHg 71%
16:00 +13°C° 0.1 mm 8 mps 740 mmHg 73%
17:00 +14°C° 0.1 mm 7 mps 740 mmHg 74%
18:00 +13°C° 0.1 mm 6 mps 740 mmHg 76%
19:00 +11°C° 0 mm 7 mps 741 mmHg 77%
20:00 +9°C° 0 mm 7 mps 741 mmHg 78%
21:00 +8°C° 0 mm 7 mps 742 mmHg 79%
22:00 +8°C° 0 mm 7 mps 742 mmHg 80%
23:00 +8°C° 0 mm 7 mps 742 mmHg 81%

22 May, Saturday

Time Temperature Precipitation Wind Pressure Humidity
00:00 +8°C° 0 mm 6 mps 743 mmHg 82%
01:00 +8°C° 0 mm 5 mps 743 mmHg 85%
02:00 +7°C° 0 mm 5 mps 743 mmHg 89%
03:00 +6°C° 0 mm 4 mps 744 mmHg 92%
04:00 +8°C° 0 mm 3 mps 744 mmHg 91%
05:00 +8°C° 0 mm 3 mps 744 mmHg 89%
06:00 +9°C° 0 mm 3 mps 744 mmHg 88%
07:00 +10°C° 0 mm 3 mps 745 mmHg 83%
08:00 +11°C° 0 mm 3 mps 745 mmHg 77%
09:00 +13°C° 0 mm 3 mps 745 mmHg 71%
10:00 +14°C° 0 mm 3 mps 745 mmHg 67%
11:00 +14°C° 0 mm 3 mps 745 mmHg 64%
12:00 +16°C° 0 mm 2 mps 745 mmHg 60%
13:00 +17°C° 0 mm 3 mps 745 mmHg 57%
14:00 +17°C° 0 mm 3 mps 745 mmHg 54%
15:00 +18°C° 0 mm 3 mps 745 mmHg 52%
16:00 +18°C° 0 mm 2 mps 745 mmHg 56%
17:00 +18°C° 0 mm 2 mps 745 mmHg 59%
18:00 +19°C° 0 mm 1 mps 745 mmHg 63%
19:00 +16°C° 0 mm 1 mps 745 mmHg 67%
20:00 +14°C° 0 mm 1 mps 745 mmHg 71%
21:00 +13°C° 0 mm 1 mps 746 mmHg 74%
22:00 +12°C° 0 mm 2 mps 746 mmHg 77%
23:00 +10°C° 0 mm 2 mps 746 mmHg 80%

23 May, Sunday

Time Temperature Precipitation Wind Pressure Humidity
00:00 +9°C° 0 mm 2 mps 746 mmHg 83%
01:00 +9°C° 0 mm 2 mps 746 mmHg 84%
02:00 +8°C° 0 mm 2 mps 747 mmHg 85%
03:00 +8°C° 0 mm 2 mps 747 mmHg 86%
04:00 +9°C° 0 mm 2 mps 747 mmHg 85%
05:00 +9°C° 0 mm 2 mps 747 mmHg 85%
06:00 +9°C° 0 mm 2 mps 747 mmHg 84%
07:00 +11°C° 0 mm 3 mps 748 mmHg 77%
08:00 +13°C° 0 mm 3 mps 748 mmHg 70%
09:00 +14°C° 0 mm 4 mps 748 mmHg 62%
10:00 +15°C° 0 mm 4 mps 748 mmHg 60%
11:00 +17°C° 0 mm 4 mps 747 mmHg 57%
12:00 +18°C° 0 mm 4 mps 747 mmHg 54%
13:00 +18°C° 0 mm 4 mps 747 mmHg 53%
14:00 +19°C° 0 mm 4 mps 747 mmHg 53%
15:00 +19°C° 0 mm 4 mps 747 mmHg 52%
16:00 +19°C° 0 mm 4 mps 746 mmHg 57%
17:00 +19°C° 0 mm 4 mps 746 mmHg 61%
18:00 +18°C° 0 mm 4 mps 746 mmHg 66%
19:00 +17°C° 0 mm 4 mps 746 mmHg 70%
20:00 +14°C° 0 mm 4 mps 746 mmHg 74%
21:00 +13°C° 0 mm 3 mps 746 mmHg 78%
22:00 +12°C° 0 mm 3 mps 746 mmHg 79%
23:00 +12°C° 0 mm 3 mps 746 mmHg 80%
Show more